CZ-6A DEB, 60623

Orbit data source: Space-Track

CZ-6A DEB, 60623 is space debris in LEO originally from a launch on Tue, 06 Aug 2024 UTC launched from the Taiyaun Space Center, China (TSC). Debris objects in space refer to the collection of defunct objects orbiting the Earth. Examples of debris include non-operational satellites, rocket bodies, and fragments generated from explosions, collisions, or faulty payload assembly.

Loading next visibility...
Identifier
60623, 2024-140Y
Orbit
LEO
Country
Flag of CNCN / PRC
Related business
Manufacturer
SAST
Mission
Spacecraft
Bus & Motor
Unknown
Mass
Unknown
Launch date (UTC)
2024-08-06 (2 years ago)
Launch vehicle
Unknown
Launch site
Taiyaun Space Center, China (TSC)
Object type
Payload
Rocket body
Debris
Shape & HBR
Unknown shape, 0.7 m
Radar Cross Section
Large (>1 m²)

Expand to show TLE details & history
Last TLE update: 13 hours ago

TLE from 13 hours ago
0 CZ-6A DEB
1 60623U 24140Y   26171.31786530  .00001192  00000-0  25226-3 0  9991
2 60623  89.0147 271.1777 0103226 255.8057 103.1668 14.55361496 98833
Epoch: 2026-06-20T07:37Z
TLE epoch observation values (Epoch: 2026-06-20T07:37:43.561Z)
Latitude
-0.00007°
Longitude
-111.78802°
Altitude
728.674 km
Speed
7.482 km/s
True Right ascension
18h 04m 42s
True Declination
0° 00' 00"
Sunlit
Object was in full shadow at epoch
Visualization orbit readout
Latitude
Unknown
Longitude
Unknown
Altitude
Unknown
Speed
Unknown
Apparent Right ascension
Unknown
Apparent Declination
Unknown
Sunlit
N/A
Visualization observer readout
Local Sidereal Time
07:15:22
Azimuth
Unknown
Elevation
Unknown
Doppler factor
Unknown
Orbital elements
Apogee altitude
778.209 km
Perigee altitude
631.974 km
Semi-major axis
7,083.228 km
Eccentricity
0.01032
Inclination
89.0147°
RAAN
271.1777°
Arg. of periapsis
255.8057°
True anomaly
104.31513°
Mean anomaly
103.1668°
Eccentric anomaly
103.74131°
Mean motion
3.6408 °/min
Orbital period
98.88 mins
BSTAR
0.00025226
Loading maneuver chart data...
Computing Atmospheric mass density...
Loading historical data...
Loading historical data...
Loading historical data...
Loading historical data...
Loading historical data...
Loading historical data...
Loading historical data...

Documentation

Showing up to 5 results
|